LEMUR-2-ELHAM (44086 NORAD) Tracking and Keplerian Element Data

This shows tracking and keplerian element data for the satellite.

Feedback or suggestion? Click here.




ElementValue
Catalog44086
NameLEMUR-2-ELHAM
Epoch Orbit435
Epoch Day119.94765024
Epoch Year2019
RAAN180.2578
Inclination97.4615
Eccentricity0.0014205
Argument of Perigee175.5339
Mean Anonmoly184.6026
Mean Motion15.21517045
Decay Rate2.084E-05
L11 44086U 19018J 19119.94765024 .00002084 00000-0 95510-4 0 9997
L22 44086 97.4615 180.2578 0014205 175.5339 184.6026 15.21517045 4352

Live tracking and technical data element details for LEMUR-2-ELHAM (NORAD 44086). LEMUR-2-ELHAM can be tracked NOW for your location showing map with azimuth and elevation plus other details from your city location.

Track the satellite on the map from your city or location and see movement details for azimuth, elevation, latitude, longitude, range, height, and movement on the map or in text.







IsCatalogInMostPopularTable: catalog: 44086, numindb: 18
Update: records affected: 1



GetName: 44086 LEMUR-2-ELHAM

Hit Count: updated at: Mon, 22 Jul 2019 03:17:34 GMT